Tracking 23757 objects as of 26-Oct-2021
HD Live streaming from Space Station
objects crossing your sky now

STARLINK-3085

Track STARLINK-3085 now!
10-day predictions
STARLINK-3085 is classified as:


NORAD ID: 49156
Int'l Code: 2021-082AC
Perigee: 364.1 km
Apogee: 369.6 km
Inclination: 70.0 °
Period: 91.7 minutes
Semi major axis: 6737 km
RCS: Unknown
Launch date: September 14, 2021
Source: United States (US)
Launch site: AIR FORCE WESTERN TEST RANGE (AFWTR)
aabbcc
Your satellite tracking list
Your tracking list is empty




NASA's NSSDC Master Catalog

Two Line Element Set (TLE):
1 49156U 21082AC  21299.16668981  .00054910  00000-0  45910-3 0  9997
2 49156  70.0002   8.6633 0004072 287.2587  23.7445 15.69727379  7787
Source of the keplerian elements: AFSPC